This is the latest recevied weather packets stored in our database for station/object KI6SYE. If no packets are shown the sender has not sent any weather packets the latest 10 day(s).
| Time | Temp. | Humidity | Pressure | Rain* | Wind** | Luminosity | Snow |
|---|---|---|---|---|---|---|---|
| 1777993091 | 15° C | 83% | 1013.9 hPa | 0 mm | - | 234 W/m² | - |
| 1777992790 | 15° C | 83% | 1014 hPa | 0 mm | - | 218 W/m² | - |
| 1777992487 | 15° C | 84% | 1013.9 hPa | 0 mm | - | 191 W/m² | - |
| 1777992185 | 15° C | 84% | 1013.8 hPa | 0 mm | - | 187 W/m² | - |
| 1777991881 | 14.44° C | 85% | 1013.8 hPa | 0 mm | - | 164 W/m² | - |
| 1777991579 | 14.44° C | 85% | 1013.7 hPa | 0 mm | - | 98 W/m² | - |
| 1777991276 | 14.44° C | 85% | 1013.7 hPa | 0 mm | - | 118 W/m² | - |
| 1777990973 | 14.44° C | 85% | 1013.6 hPa | 0 mm | - | 98 W/m² | - |
| 1777990671 | 14.44° C | 85% | 1013.9 hPa | 0 mm | - | 93 W/m² | - |
| 1777990368 | 14.44° C | 85% | 1013.6 hPa | 0 mm | - | 85 W/m² | - |
| 1777990064 | 13.89° C | 86% | 1013.7 hPa | 0 mm | - | 53 W/m² | - |
| 1777989761 | 13.89° C | 86% | 1013.7 hPa | 0 mm | - | 45 W/m² | - |
| 1777989457 | 13.89° C | 87% | 1013.6 hPa | 0 mm | - | 37 W/m² | - |
| 1777989154 | 13.89° C | 87% | 1013.5 hPa | 0 mm | - | 32 W/m² | - |
| 1777988850 | 13.89° C | 87% | 1013.4 hPa | 0 mm | - | 31 W/m² | - |
| 1777988548 | 13.89° C | 87% | 1013.7 hPa | 0 mm | - | 28 W/m² | - |
| 1777988244 | 13.89° C | 86% | 1013.4 hPa | 0 mm | - | 20 W/m² | - |
| 1777987941 | 13.89° C | 86% | 1013.5 hPa | 0 mm | - | 17 W/m² | - |
| 1777987636 | 13.89° C | 86% | 1013.3 hPa | 0 mm | - | 13 W/m² | - |
| 1777987334 | 13.89° C | 86% | 1013.6 hPa | 0 mm | - | 9 W/m² | - |
| 1777987031 | 13.89° C | 86% | 1013.5 hPa | 0 mm | - | 8 W/m² | - |
| 1777986729 | 13.89° C | 86% | 1013.2 hPa | 0 mm | - | 6 W/m² | - |
| 1777986426 | 13.89° C | 85% | 1013.5 hPa | 0 mm | - | 4 W/m² | - |
| 1777986124 | 13.89° C | 85% | 1013.6 hPa | 0 mm | - | 2 W/m² | - |
| 1777985820 | 13.89° C | 85% | 1013.3 hPa | 0 mm | - | 1 W/m² | - |
* Rain latest hour (hover to see other rain measurements)
** Current wind speed in m/s (hover to see current wind gust speed)